Regional Weather Roundup
Issued by NWS

Home | Current Version | Previous Version | Graphics & Text | Print | Product List | Glossary On
Versions: 1 2 3 4 5 6 7 8 9 10 11 12 13 14 15 16 17 18 19 20 21 22 23 24 25 26 27 28 29 30 31 32 33 34 35 36 37 38 39 40 41 42 43 44 45 46 47 48 49 50
000
ASUS43 KIND 181309
RWRIN

WEATHER ROUNDUP FOR INDIANA
NATIONAL WEATHER SERVICE INDIANAPOLIS IN
800 AM EST THU JAN 18 2018

NOTE: "FAIR" INDICATES FEW OR NO CLOUDS BELOW 12,000 FEET WITH NO
SIGNIFICANT WEATHER AND/OR OBSTRUCTIONS TO VISIBILITY.

* - STATION DOES NOT REPORT WEATHER SUCH AS PRECIPITATION OR FOG.

+ - STATION NOT QUALITY CONTROLLED BY THE NATIONAL WEATHER SERVICE.
    USE DATA WITH CAUTION...ESPECIALLY DEWPOINT AND RELATIVE
    HUMIDITY OBSERVATIONS.

INZ001>003-010>013-019-020-181400-
NORTHWEST INDIANA

CITY           SKY/WX    TMP DP  RH WIND       PRES   REMARKS
GARY /AIRPORT/ CLEAR     16   9  73 SW10      30.19F WCI   3
KNOX *+        FAIR      14   9  79 SW15      30.20F WCI  -1
LA PORTE +     FAIR      13   8  78 SW13      30.18F WCI  -1
MICHIGAN CITY+ FAIR      18  10  73 SW12G22   30.18S WCI   5
MONTICELLO +   FAIR      15   7  72 SW15G21   30.25S WCI  -1
RENSSELAER +   FAIR      16   9  73 SW14      30.24S WCI   1
VALPARAISO     FAIR      15   9  76 SW15      30.19F WCI   0

$$

LMZ046-743>745-181400-
SOUTHERN LAKE MICHIGAN

STATION/POSITION TIME  TEMP    WIND        PRES    WAVE
                       AIR SEA DIR/SP/G            HT
                 (UTC) (F)     (DEG/KT/KT) (MB)    (FT)
BURNS HARBOR     1240   16     220/ 14/ 20 1022.4F
MICHIGAN CITY    1240   17     200/ 19/ 23   N/A

$$

INZ004-005-014>016-021>024-181400-
NORTH CENTRAL INDIANA

CITY           SKY/WX    TMP DP  RH WIND       PRES   REMARKS
ELKHART        FAIR      16   9  73 SW10G16   30.15F WCI   3
GOSHEN         FAIR      15   8  73 SW20G29   30.15F WCI  -2
LOGANSPORT +   FAIR      14   9  79 SW12      30.26S WCI   0
PERU/GRISSOM   FAIR      15   9  78 W18       30.22F WCI  -2
ROCHESTER +    FAIR      18  10  73 SW13G21   30.22S WCI   4
SOUTH BEND     FAIR      12   6  77 SW12      30.15F WCI  -2
WARSAW +       FAIR      14   9  79 SW14G22   30.17F WCI  -1

$$

INZ006>009-017-018-025>027-181400-
NORTHEAST INDIANA

CITY           SKY/WX    TMP DP  RH WIND       PRES   REMARKS
AUBURN +       FAIR      16 -24  16 SW12G20   30.16S WCI   3
FORT WAYNE     FAIR      15   8  73 W18       30.19S WCI  -2
HUNTINGTON +   FAIR      15   7  70 W16G22    30.21R WCI   0
KENDALLVILLE + FAIR      14   8  78 W16       30.13S WCI  -2

$$

INZ028-029-035-036-043>045-051>053-181400-
WEST CENTRAL INDIANA

CITY           SKY/WX    TMP DP  RH WIND       PRES   REMARKS
CRAWFORDSVL +  FAIR       9   6  88 MISG      30.30F
GREENCASTLE +  FAIR      10   5  79 SW6       30.33F WCI   1
LAFAYETTE      FAIR      14   8  77 SW12G21   30.28F WCI   0
TERRE HAUTE    FAIR      11   5  77 SW12      30.37F WCI  -3

$$

INZ030>032-037>040-046>048-054>057-064-065-181400-
CENTRAL INDIANA

CITY           SKY/WX    TMP DP  RH WIND       PRES   REMARKS
COLUMBUS       CLEAR      9   3  78 S9        30.38S WCI  -5
FISHERS *+       N/A     10   9  92 SW9       30.30F WCI  -2
FRANKFORT +    FAIR      15   9  77 SW10      30.28F WCI   2
GREENWOOD *+   FAIR      15   8  72 SW13      30.33F WCI   1
INDIANAPOLIS   FAIR      11   6  81 SW15      30.32F WCI  -5
-EAGLE CREEK   FAIR      11   5  77 SW9       30.30F WCI  -2
MARION +       LGT SNOW  13   8  79 SW17      30.25S WCI  -3
MT COMFORT *+  FAIR      10   9  92 SW10      30.30F WCI  -3
SHELBYVILLE    FAIR       8   3  80 S9        30.33S WCI  -5
ZIONSVILLE +   FAIR      12   6  77 SW16      30.28F WCI  -5

$$

INZ033-034-041-042-049-050-058-059-181400-
EAST CENTRAL INDIANA

CITY           SKY/WX    TMP DP  RH WIND       PRES   REMARKS
MUNCIE         FAIR      14   6  70 SW16G23   30.24F WCI  -2
RICHMOND +     FAIR      12   7  79 SW16      30.28S WCI  -4

$$

INZ060-061-067>069-081>083-085>088-181400-
SOUTHWEST INDIANA

CITY           SKY/WX    TMP DP  RH WIND       PRES   REMARKS
EVANSVILLE     FAIR      11   9  92 SW9       30.47S WCI  -2
HUNTINGBURG +  FAIR       7   5  91 S10       30.46S WCI  -8
WASHINGTON +   FAIR      10   4  74 S8        30.43R WCI  -2

$$

INZ062-063-066-070>080-084-089>092-181400-
SOUTH CENTRAL AND SOUTHEAST INDIANA

CITY           SKY/WX    TMP DP  RH WIND       PRES   REMARKS
BATESVILLE *+    N/A    N/A N/A N/A MISG        N/A
BEDFORD +      FAIR      12   7  79 SW8       30.39R WCI   1
BLOOMINGTON    FAIR      13   5  70 SW13      30.36S WCI  -2
FRENCH LICK *+ FAIR      10   5  79 SW7       30.41S WCI   0
MADISON *+     FAIR      10   5  79 S6        30.41F WCI   1
NORTH VERNON + FAIR       7   3  85 S7        30.38F WCI  -5
SEYMOUR +      FAIR      12   5  73 S8        30.40S WCI   1

$$





USA.gov is the U.S. government's official web portal to all federal, state and local government web resources and services.